Tracking 17138 objects as of 3-July-2015
HD Live streaming from Space Station

GLOBALSTAR M042

Track GLOBALSTAR M042 now!
10-day predictions
GLOBALSTAR M042 is classified as:


NORAD ID: 25679
Int'l Code: 1999-019D
Perigee: 1,589.2 km
Apogee: 1,592.9 km
Inclination: 52.0 °
Period: 117.8 minutes
Semi major axis: 7962 km
RCS: 2.3601 m2 (large)
Launch date: April 15, 1999
Source: Globalstar (GLOB)
Your satellite tracking list
Your tracking list is empty





NASA's NSSDC Master Catalog

Two Line Element Set (TLE):
1 25679U 99019D   15183.63026453 -.00000052  00000-0  38095-3 0  9990
2 25679 052.0002 238.7139 0002316 039.5937 059.7476 12.21979770740601

Source of the keplerian elements: AFSPC

N2YO: 250